Location: Unspecified
(38.6920°N, 0.0000°E)
Time: 04:31:13
(UTC+00:00)

Burner II No. 8 - Visible Passes

Search period start: 04 April 2026 00:00
Search period end: 14 April 2026 00:00
Orbit: 767 x 810 km, 98.8° (Epoch: 29 March)

Date Brightness Start Highest point End Pass type
(mag) Time Alt. Az. Time Alt. Az. Time Alt. Az.
4 Apr 9.9 01:48:18 19° ENE 01:48:18 19° ENE 01:51:26 10° NNE visible
4 Apr 8.5 03:28:58 32° NW 03:28:58 32° NW 03:31:56 10° NNW visible
5 Apr 8.1 02:58:21 49° N 02:58:21 49° N 03:02:03 10° NNW visible
6 Apr 8.7 02:27:44 39° NE 02:27:44 39° NE 02:31:48 10° N visible
6 Apr 9.1 04:08:24 18° WNW 04:08:24 18° WNW 04:10:24 10° NW visible
7 Apr 9.6 01:57:06 22° ENE 01:57:14 22° ENE 02:01:07 10° NNE visible
7 Apr 8.3 03:37:47 34° WNW 03:37:47 34° WNW 03:41:11 10° NNW visible
8 Apr 10.3 01:26:28 11° ENE 01:27:36 12° ENE 01:29:26 10° NE visible
8 Apr 7.7 03:07:09 62° NNW 03:07:09 62° NNW 03:11:25 10° NNW visible
9 Apr 8.2 02:36:32 51° ENE 02:36:32 51° ENE 02:41:16 10° N visible
9 Apr 9.1 04:17:12 16° WNW 04:17:12 16° WNW 04:19:20 10° NW visible
10 Apr 9.3 02:05:54 26° ENE 02:06:29 27° ENE 02:10:44 10° N visible
10 Apr 8.3 03:46:34 32° WNW 03:46:34 32° WNW 03:50:23 10° NNW visible
11 Apr 10.1 01:35:17 13° E 01:36:49 15° ENE 01:39:32 10° NNE visible
11 Apr 7.4 03:15:57 65° WNW 03:15:57 65° WNW 03:20:45 10° NNW visible
12 Apr 7.8 02:45:19 61° E 02:45:37 63° ENE 02:50:42 10° N visible
12 Apr 9.2 04:26:00 14° W 04:26:00 14° W 04:28:04 10° WNW visible
13 Apr 9.0 02:14:43 30° E 02:15:46 32° ENE 02:20:18 10° N visible
13 Apr 8.4 03:55:22 27° W 03:55:22 27° W 03:59:31 10° NW visible
